Location: Les Jeannots
(43.2262°N, 5.5774°E)
Time: 18:04:35
(UTC+00:00)

Cosmos 2322 - Pass Details

Date: 05 July 2020
Orbit: 841 x 854 km, 71.0° (Epoch: 13 August)

Event Time Altitude Azimuth Distance (km) Brightness Sun altitude
Rises 20:16:05 0° 182° (S) 3,406 6.5 -8.8°
Reaches altitude 10° 20:18:38 10° 176° (S) 2,475 5.7 -9.2°
Maximum altitude 20:23:57 43° 107° (ESE) 1,189 4.1 -9.9°
Drops below altitude 10° 20:29:19 10° 37° (NE) 2,491 6.3 -10.6°
Sets 20:31:53 0° 31° (NNE) 3,430 7.1 -10.9°
